Stockton, CA

2:21 AM PDT on April 27, 2018 (GMT -0700)
Stockton Metro

Weather History for KSCK - September, 2012

Change the Weather History Date:

Saturday, September 8, 2012

  Actual Average Record
Temperature  
Mean Temperature 75 °F -  
Max Temperature 90 °F 90 °F 103 °F (1977)
Min Temperature 59 °F 58 °F 48 °F (2002)
Degree Days  
Heating Degree Days 0 0  
Month to date heating degree days 0 0  
Since 1 July heating degree days 0 0  
Cooling Degree Days 10 9  
Month to date cooling degree days 68 73  
Year to date cooling degree days 1115 1117  
Growing Degree Days 24 (Base 50)    
Moisture  
Dew Point 48 °F    
Average Humidity 50    
Maximum Humidity 75    
Minimum Humidity 24    
Precipitation  
Precipitation 0.00 in 0.01 in 0.07 in (1985)
Month to date precipitation T 0.03  
Year to date precipitation 6.48 9.07  
Since 1 July precipitation 0.01  
Snow  
Snow 0.00 in - - ()
Month to date snowfall 0.0  
Since 1 July snowfall 0.0  
Since 1 September snowfall 0.0  
Snow Depth -    
Sea Level Pressure  
Sea Level Pressure 29.95 in    
Wind  
Wind Speed 7 mph (NW)    
Max Wind Speed 15 mph    
Max Gust Speed 20 mph    
Visibility 10 miles    
Events      
T = Trace of Precipitation, MM = Missing Value Source: NWS Daily Summary

Daily Weather History Graph

Daily Weather History Graph

Search for Another Location

Airport or City:

Astronomy

Sep. 08, 2012 Rise Set
Actual Time 6:41 AM PDT 7:22 PM PDT
Civil Twilight 6:14 AM PDT 7:49 PM PDT
Nautical Twilight 5:43 AM PDT 8:20 PM PDT
Astronomical Twilight 5:11 AM PDT 8:52 PM PDT
Moon No Moon Rise 2:19 PM PDT (9/8)
Length of Visible Light 13h 34m
Length of Day
12h 41m
Waning Gibbous, 48% of the Moon is Illuminated
Sep 8
Waning Gibbous
Sep 15
New
Sep 22
First Quarter
Sep 29
Full
Oct 8
Last Quarter

Hourly Weather History & Observations

Time (PDT) Temp. Dew Point Humidity Pressure Visibility Wind Dir Wind Speed Gust Speed Precip Events Conditions
12:55 AM 66.9 °F 50.0 °F 54% 29.98 in 10.0 mi North 4.6 mph - N/A   Clear
1:55 AM 64.9 °F 50.0 °F 58% 29.99 in 10.0 mi NNE 3.5 mph - N/A   Clear
2:55 AM 63.0 °F 48.9 °F 60% 29.98 in 10.0 mi NNE 4.6 mph - N/A   Clear
3:55 AM 62.1 °F 48.9 °F 62% 29.98 in 10.0 mi NNE 3.5 mph - N/A   Clear
4:55 AM 60.1 °F 50.0 °F 69% 29.98 in 10.0 mi North 4.6 mph - N/A   Clear
5:55 AM 60.1 °F 50.0 °F 69% 29.98 in 10.0 mi NNW 5.8 mph - N/A   Clear
6:55 AM 59.0 °F 51.1 °F 75% 29.99 in 10.0 mi NNW 5.8 mph - N/A   Clear
7:55 AM 64.0 °F 52.0 °F 65% 30.01 in 10.0 mi NNW 3.5 mph - N/A   Clear
8:55 AM 66.9 °F 52.0 °F 59% 30.00 in 10.0 mi Variable 3.5 mph - N/A   Clear
9:55 AM 73.9 °F 51.1 °F 45% 30.00 in 10.0 mi NNW 5.8 mph - N/A   Clear
10:55 AM 78.1 °F 48.9 °F 36% 29.99 in 10.0 mi NNW 6.9 mph - N/A   Clear
11:55 AM 82.0 °F 46.9 °F 29% 29.98 in 10.0 mi NNW 4.6 mph - N/A   Clear
12:55 PM 84.0 °F 46.9 °F 27% 29.96 in 10.0 mi NW 10.4 mph 18.4 mph N/A   Clear
1:55 PM 87.1 °F 48.0 °F 26% 29.94 in 10.0 mi NW 11.5 mph 17.3 mph N/A   Clear
2:55 PM 88.0 °F 46.0 °F 23% 29.91 in 10.0 mi NW 11.5 mph - N/A   Clear
3:55 PM 90.0 °F 48.0 °F 24% 29.89 in 10.0 mi NW 12.7 mph - N/A   Clear
4:55 PM 89.1 °F 48.9 °F 25% 29.88 in 10.0 mi WNW 11.5 mph - N/A   Clear
5:55 PM 87.1 °F 48.9 °F 27% 29.88 in 10.0 mi WNW 11.5 mph - N/A   Clear
6:55 PM 82.0 °F 42.1 °F 24% 29.88 in 10.0 mi West 13.8 mph - N/A   Clear
7:55 PM 75.9 °F 43.0 °F 31% 29.89 in 10.0 mi West 15.0 mph - N/A   Clear
8:55 PM 71.1 °F 44.1 °F 38% 29.90 in 10.0 mi West 9.2 mph - N/A   Clear
9:55 PM 69.1 °F 44.1 °F 40% 29.91 in 10.0 mi West 8.1 mph - N/A   Clear
10:55 PM 68.0 °F 44.1 °F 42% 29.91 in 10.0 mi WNW 9.2 mph - N/A   Clear
11:55 PM 66.0 °F 45.0 °F 47% 29.91 in 10.0 mi NW 6.9 mph - N/A   Clear